ICEYE-X1 (43114 NORAD) Tracking and Keplerian Element Data

This shows tracking and keplerian element data for the satellite.

Feedback or suggestion? Click here.




ElementValue
Catalog43114
NameICEYE-X1
Epoch Orbit20486
Epoch Day262.19741415
Epoch Year2021
RAAN333.6293
Inclination97.398
Eccentricity0.0008381
Argument of Perigee220.6473
Mean Anonmoly139.414
Mean Motion15.24860747
Decay Rate1.673E-05
L11 43114U 18004D 21262.19741415 .00001673 00000-0 70168-4 0 9994
L22 43114 97.3980 333.6293 0008381 220.6473 139.4140 15.24860747204860

Live tracking and technical data element details for ICEYE-X1 (NORAD 43114). ICEYE-X1 can be tracked NOW for your location showing map with azimuth and elevation plus other details from your city location.

Track the satellite on the map from your city or location and see movement details for azimuth, elevation, latitude, longitude, range, height, and movement on the map or in text.







IsCatalogInMostPopularTable: catalog: 43114, numindb: 731
Update: records affected: 1



GetName: 43114 ICEYE-X1

Hit Count: updated at: Sun, 26 Sep 2021 00:39:18 GMT